Wind_Speed
6 6 5 6 7 8 8 9 9 10 10 11 11 11 11 11 10 10 9 9 8 8 7 7 7 7 7 6 5 6 6 6 6 6 6 6 6 6 5 5 5 6 6
6 5 5 5 6 7 8 9 9 9 10 10 10 10 10 10 10 9 9 8 8 7 7 7 6 6 6 6 5 6 6 6 5 6 6 6 6 6 5 5 5 6 6
6 5 4 4 5 6 7 7 8 9 10 10 9 9 9 9 9 8 7 7 7 7 6 6 6 6 5 5 6 6 6 5 5 6 6 6 6 6 6 5 5 6 6
6 5 5 4 4 5 6 7 8 8 9 9 9 9 9 9 8 7 7 7 7 6 6 5 6 6 6 5 5 6 5 5 6 6 6 5 5 6 6 5 5 5 5
6 5 4 4 4 4 5 6 7 8 8 9 9 9 8 9 8 7 7 7 7 6 6 6 6 6 6 5 6 6 6 5 6 6 5 5 5 5 5 5 4 5 5
5 4 3 3 3 4 4 5 6 7 8 8 8 8 8 9 8 7 7 7 7 7 6 6 6 5 5 5 6 6 6 5 6 5 5 5 4 4 4 4 4 4 5
6 4 3 3 3 3 4 5 5 6 7 8 8 8 8 8 8 7 6 6 7 7 7 6 5 5 5 6 6 6 5 6 6 5 4 4 4 4 4 4 3 3 4
7 5 3 2 2 3 4 4 5 6 6 7 7 8 8 7 7 7 6 6 6 6 6 6 5 4 5 6 6 6 6 6 5 4 4 4 3 4 3 3 3 2 3
7 5 4 2 2 2 3 3 4 5 5 7 7 8 7 7 7 7 7 6 5 5 6 6 5 4 5 5 6 6 5 5 5 5 4 3 3 3 3 3 2 2 2
7 6 4 3 1 1 2 3 4 4 5 6 7 7 7 6 7 7 7 6 6 5 6 6 5 5 5 5 6 6 5 4 4 4 4 3 3 3 2 2 2 2 2
8 7 6 3 2 1 2 3 3 4 5 6 6 6 6 5 6 7 7 6 6 6 6 6 6 5 5 5 5 5 5 4 3 3 3 2 2 2 2 2 1 1 2
9 7 6 4 2 2 2 2 3 4 5 5 6 6 5 5 5 6 6 6 6 6 6 6 6 5 5 5 5 5 4 4 3 3 2 2 2 1 1 1 2 2 2
9 8 7 6 4 2 2 3 3 4 4 4 5 5 5 5 5 5 6 6 6 6 6 6 5 5 5 5 5 5 4 4 3 3 2 2 2 2 1 2 2 2 2
9 8 8 7 6 4 3 3 3 3 4 4 5 5 5 5 5 5 5 6 6 5 6 6 5 5 5 5 4 4 4 3 3 2 2 2 2 2 3 3 3 3 3
10 9 8 7 6 5 3 2 3 3 3 4 5 5 5 5 5 5 5 5 5 5 5 5 4 5 5 4 3 3 3 3 2 2 2 2 3 3 3 3 3 4 4
11 10 8 7 6 5 3 3 3 3 3 4 5 5 5 5 4 5 5 5 4 4 5 4 4 4 4 4 3 3 3 2 2 2 2 3 3 3 3 4 4 4 4
11 10 8 7 7 6 5 3 3 3 3 4 4 5 4 4 4 4 5 4 4 4 4 4 4 4 4 3 3 3 3 2 2 2 3 3 4 4 4 5 5 6 6
11 10 9 8 6 6 5 4 3 2 2 3 3 3 4 4 4 4 4 4 4 4 4 4 4 4 4 3 3 3 3 3 3 3 4 4 5 6 6 7 7 7 7
12 11 10 8 6 6 5 3 2 2 2 2 2 3 3 3 4 4 4 4 4 4 5 4 4 4 4 4 4 4 5 5 5 5 5 6 6 7 7 8 8 9 9
11 11 10 9 7 5 4 3 2 1 1 1 1 2 2 3 3 3 4 4 4 4 5 5 5 5 5 5 5 6 6 6 7 7 7 7 8 8 8 9 9 10 10
12 11 11 10 7 6 5 3 2 1 0 1 1 2 2 3 3 3 4 5 5 5 6 6 6 6 7 7 7 7 7 8 8 8 9 9 9 9 10 10 10 12 12
12 12 11 10 8 6 4 4 2 2 1 1 1 1 2 3 4 4 4 5 6 6 7 8 8 8 8 9 8 8 8 9 10 10 10 11 11 12 12 12 12 13 14
12 11 11 10 8 6 5 4 3 3 2 2 2 2 3 4 4 4 5 5 7 8 8 8 9 9 9 10 10 10 10 10 11 11 12 12 12 13 13 13 14 14 15
13 11 11 10 8 7 6 5 3 3 3 3 3 3 3 4 4 5 5 6 7 7 8 9 10 10 10 10 11 11 12 12 12 12 13 13 13 14 14 14 14 15 16
12 11 10 10 9 7 6 5 4 3 3 4 4 4 4 4 5 6 6 7 8 8 9 10 11 11 11 12 12 12 13 13 13 14 14 15 15 14 15 15 15 16 17
12 11 10 10 9 8 6 5 4 4 4 5 5 5 5 5 5 6 7 8 9 9 10 10 10 11 12 13 13 14 15 15 15 15 15 16 16 16 16 17 17 18 17
Wind_Direction
85 82 90 103 106 111 114 114 115 114 113 114 117 119 121 120 118 117 118 119 119 118 121 122 128 127 123 127 135 133 131 128 125 124 122 122 121 123 121 118 112 113 110
81 82 92 105 110 114 120 120 121 122 117 116 118 116 115 118 117 119 121 121 119 118 120 123 126 126 122 123 123 119 123 123 128 126 121 120 119 117 111 116 110 106 108
77 84 96 110 116 115 119 122 122 122 121 119 116 113 113 118 118 118 122 120 120 122 124 129 132 130 128 129 123 118 121 123 126 129 124 121 119 119 114 115 118 115 111
76 81 92 110 121 121 122 124 124 122 121 120 119 116 114 116 121 120 121 122 123 123 125 131 130 129 132 129 124 124 123 123 124 122 123 123 126 125 123 121 124 124 115
75 80 92 109 124 127 127 128 126 124 125 125 126 125 121 120 122 122 122 125 127 127 128 131 133 133 133 125 122 127 127 128 123 117 115 119 128 128 129 125 122 127 124
65 71 84 101 119 127 132 129 129 129 129 130 132 133 132 130 129 127 127 129 133 131 130 135 134 140 136 132 130 132 132 132 125 121 119 120 125 129 131 124 122 129 135
52 58 77 93 111 115 128 136 138 137 136 137 137 136 136 137 134 130 129 131 132 134 136 135 135 136 141 132 127 129 133 131 124 121 123 126 125 131 138 134 128 131 147
40 42 54 78 114 122 131 136 145 146 146 148 147 144 141 142 139 135 131 132 133 136 139 133 128 130 138 131 132 132 131 126 124 124 128 134 131 133 136 139 137 129 136
36 35 41 57 104 127 142 146 148 152 155 156 157 155 150 152 149 143 138 134 133 136 138 133 128 129 138 138 137 135 130 128 126 124 132 137 134 134 134 140 142 132 142
36 37 47 44 84 122 141 146 149 155 160 162 159 160 157 154 154 150 142 139 133 131 135 137 133 127 130 136 137 138 135 131 132 137 140 141 132 137 142 142 141 144 159
38 39 41 44 67 92 126 138 143 148 154 161 161 162 161 155 154 151 147 141 138 135 136 138 137 135 133 130 136 144 141 138 143 148 153 148 137 140 153 152 169 180 182
37 37 36 37 61 86 107 127 138 139 144 153 158 160 157 154 152 151 153 148 143 140 139 137 141 143 142 139 141 145 143 150 154 160 167 166 165 170 189 186 201 208 206
38 38 36 40 51 68 105 123 136 145 148 148 154 161 156 151 150 152 155 152 147 146 145 146 146 145 146 144 143 143 149 156 162 170 178 191 201 224 244 219 207 210 224
35 37 41 45 53 68 93 113 128 138 142 150 152 154 155 157 157 157 158 157 153 150 151 151 153 154 150 148 148 151 155 159 164 178 193 206 219 239 245 233 230 227 241
32 35 39 43 45 59 67 90 115 130 134 145 154 153 153 156 157 159 155 158 156 157 154 153 151 151 158 161 160 159 162 166 175 197 209 222 233 243 248 244 246 245 249
29 33 36 38 39 45 52 82 105 112 122 138 152 155 156 158 159 157 160 164 169 170 171 170 167 166 172 175 179 179 182 186 200 219 232 243 248 257 262 258 256 263 266
26 29 31 29 33 43 53 73 99 114 123 135 153 163 165 163 161 158 159 167 176 178 180 184 184 184 189 195 198 203 207 216 235 251 260 261 257 259 264 264 266 268 273
22 23 24 22 29 32 36 51 89 113 131 143 155 177 188 184 178 177 177 184 192 194 193 197 199 200 204 211 217 226 232 241 254 266 272 267 266 267 266 266 269 272 276
16 16 16 15 21 19 21 52 94 103 120 141 165 180 183 189 191 194 198 201 207 203 206 207 207 212 223 230 236 244 250 256 264 269 273 275 275 274 271 269 271 274 276
12 10 8 6 9 8 23 39 58 83 126 129 171 187 198 203 206 210 213 208 212 214 219 222 224 229 240 248 255 258 261 264 270 273 274 277 279 276 274 272 271 273 276
8 6 5 5 2 3 12 19 20 23 65 181 180 203 217 218 221 227 229 230 230 230 231 234 238 244 248 253 260 262 265 269 272 277 277 277 280 280 278 276 275 275 277
5 6 3 2 357 355 0 359 358 357 320 305 261 247 244 241 237 243 247 245 246 247 244 245 250 254 254 255 260 264 268 271 272 276 277 277 279 282 283 279 280 279 278
1 358 357 357 353 347 348 348 346 351 351 347 319 293 277 265 256 251 252 256 257 257 257 256 257 259 259 261 263 263 266 271 275 277 277 278 278 279 280 281 280 279 279
358 356 354 352 351 344 334 337 334 337 327 318 318 305 288 277 266 261 263 261 262 262 262 264 265 264 261 262 265 266 266 270 275 277 279 280 281 281 280 280 280 281 281
358 356 354 352 353 348 336 329 324 320 315 313 319 315 298 285 275 269 269 265 266 266 270 271 270 269 265 265 267 270 271 271 273 275 276 279 281 281 279 279 279 281 284
355 358 357 355 351 346 339 328 329 329 316 317 315 310 304 296 286 278 274 273 272 272 274 278 276 275 271 272 271 271 272 270 272 273 275 277 278 279 280 280 280 281 283
Height
5893 5892 5892 5892 5891 5891 5891 5892 5892 5892 5892 5892 5893 5893 5894 5894 5895 5895 5896 5897 5897 5898 5898 5899 5899 5899 5900 5900 5900 5901 5901 5901 5902 5902 5902 5902 5902 5903 5903 5903 5903 5904 5904
5894 5893 5893 5893 5893 5893 5893 5893 5893 5893 5893 5893 5894 5894 5894 5895 5896 5896 5897 5897 5898 5898 5899 5899 5900 5900 5900 5901 5901 5901 5901 5902 5902 5902 5903 5903 5903 5904 5904 5904 5904 5905 5905
5895 5894 5894 5894 5894 5894 5894 5894 5894 5894 5894 5894 5895 5895 5895 5896 5896 5897 5897 5897 5898 5899 5899 5900 5900 5901 5901 5902 5902 5902 5902 5902 5903 5903 5903 5904 5904 5904 5905 5905 5905 5906 5906
5896 5896 5895 5895 5895 5895 5895 5895 5895 5895 5895 5895 5895 5896 5896 5896 5897 5897 5897 5898 5898 5899 5900 5900 5901 5901 5902 5902 5902 5903 5903 5903 5904 5904 5904 5904 5905 5905 5905 5905 5906 5906 5907
5897 5897 5896 5896 5896 5896 5895 5895 5895 5896 5896 5896 5896 5896 5897 5897 5897 5898 5898 5898 5899 5899 5900 5900 5901 5901 5902 5902 5903 5903 5904 5904 5904 5905 5905 5905 5905 5905 5906 5906 5907 5907 5907
5898 5898 5897 5897 5897 5896 5896 5896 5896 5896 5896 5897 5897 5897 5897 5898 5898 5898 5898 5899 5899 5900 5900 5901 5901 5902 5902 5903 5903 5904 5904 5904 5905 5905 5906 5906 5906 5906 5907 5907 5907 5907 5908
5899 5898 5898 5897 5897 5897 5897 5897 5896 5897 5897 5897 5898 5898 5898 5898 5898 5898 5899 5899 5900 5900 5900 5901 5902 5902 5903 5903 5904 5904 5905 5905 5906 5906 5906 5907 5907 5907 5907 5907 5908 5908 5908
5899 5899 5898 5898 5898 5897 5897 5897 5897 5897 5897 5898 5898 5898 5898 5898 5898 5899 5899 5899 5900 5900 5901 5901 5902 5903 5903 5903 5904 5905 5905 5906 5906 5906 5907 5907 5907 5908 5908 5908 5908 5909 5909
5900 5899 5899 5898 5898 5897 5897 5897 5897 5897 5897 5898 5898 5898 5898 5898 5899 5899 5900 5900 5900 5901 5901 5902 5902 5903 5904 5904 5904 5905 5906 5906 5907 5907 5907 5908 5908 5908 5909 5909 5909 5909 5909
5901 5900 5899 5898 5898 5897 5897 5897 5897 5897 5897 5898 5898 5898 5899 5899 5899 5899 5900 5900 5901 5901 5902 5902 5903 5904 5904 5904 5905 5906 5906 5907 5907 5908 5908 5908 5908 5909 5909 5909 5909 5909 5909
5902 5901 5900 5899 5898 5897 5897 5897 5897 5897 5897 5897 5898 5898 5898 5899 5899 5899 5900 5901 5901 5902 5902 5903 5903 5904 5904 5905 5905 5906 5907 5907 5908 5908 5908 5909 5909 5909 5909 5909 5909 5909 5909
5902 5901 5900 5899 5898 5898 5897 5897 5897 5897 5897 5897 5898 5898 5899 5899 5899 5900 5900 5901 5902 5902 5902 5903 5904 5904 5905 5905 5906 5906 5907 5908 5908 5908 5909 5909 5909 5909 5909 5909 5909 5909 5909
5903 5902 5901 5899 5898 5898 5897 5897 5897 5897 5897 5897 5898 5898 5899 5899 5899 5900 5901 5901 5902 5902 5903 5903 5904 5905 5905 5906 5906 5907 5907 5908 5908 5908 5908 5909 5909 5909 5908 5908 5908 5909 5909
5904 5903 5902 5900 5899 5898 5898 5897 5897 5897 5897 5898 5898 5898 5899 5899 5900 5900 5901 5901 5902 5903 5903 5904 5904 5905 5905 5906 5906 5907 5907 5907 5908 5908 5908 5908 5908 5908 5908 5908 5908 5908 5908
5906 5904 5902 5901 5900 5899 5898 5898 5898 5898 5898 5898 5898 5898 5899 5899 5900 5900 5901 5902 5902 5903 5903 5904 5904 5905 5905 5906 5906 5907 5907 5907 5907 5908 5908 5908 5908 5908 5908 5908 5908 5908 5908
5907 5905 5903 5902 5901 5899 5899 5898 5898 5898 5898 5898 5899 5899 5899 5900 5900 5901 5901 5902 5903 5903 5904 5904 5904 5905 5905 5906 5906 5907 5907 5907 5907 5907 5907 5907 5907 5907 5907 5907 5907 5907 5907
5908 5906 5905 5903 5902 5900 5899 5899 5899 5899 5898 5899 5899 5899 5900 5900 5900 5901 5901 5902 5903 5903 5904 5904 5904 5905 5905 5906 5906 5906 5907 5907 5907 5907 5907 5907 5906 5906 5906 5906 5906 5906 5906
5909 5907 5906 5904 5902 5901 5900 5900 5899 5899 5899 5899 5899 5900 5900 5900 5901 5901 5902 5902 5903 5903 5903 5904 5904 5905 5905 5906 5906 5906 5906 5906 5906 5906 5906 5906 5906 5905 5905 5905 5905 5905 5904
5910 5908 5906 5904 5903 5902 5901 5900 5900 5900 5899 5899 5899 5899 5900 5900 5900 5901 5901 5902 5902 5903 5903 5903 5904 5904 5905 5905 5905 5905 5905 5906 5905 5905 5905 5905 5904 5904 5904 5903 5903 5903 5903
5910 5908 5907 5905 5904 5902 5901 5900 5900 5900 5899 5899 5899 5899 5899 5899 5900 5900 5901 5901 5902 5902 5903 5903 5903 5903 5903 5904 5904 5904 5904 5904 5904 5904 5904 5903 5903 5902 5902 5902 5901 5901 5900
5911 5909 5907 5905 5904 5902 5901 5900 5900 5900 5899 5899 5899 5899 5899 5899 5899 5900 5900 5901 5901 5901 5901 5902 5902 5902 5902 5902 5902 5903 5903 5902 5902 5902 5902 5901 5901 5900 5900 5899 5899 5898 5898
5911 5910 5908 5906 5904 5903 5902 5901 5900 5900 5899 5899 5899 5899 5899 5899 5899 5899 5899 5899 5900 5900 5900 5900 5900 5901 5901 5901 5901 5901 5901 5901 5900 5900 5900 5899 5899 5898 5898 5897 5896 5896 5895
5912 5910 5908 5906 5904 5903 5902 5901 5900 5899 5899 5899 5899 5899 5898 5898 5898 5898 5898 5898 5898 5898 5899 5899 5899 5899 5899 5899 5899 5899 5899 5899 5898 5898 5897 5896 5896 5895 5895 5894 5893 5893 5892
5912 5910 5908 5906 5904 5903 5901 5901 5900 5899 5899 5899 5898 5898 5897 5897 5897 5897 5897 5897 5897 5897 5897 5897 5897 5897 5897 5897 5897 5896 5896 5896 5895 5895 5895 5894 5893 5892 5892 5891 5890 5889 5888
5912 5910 5908 5906 5904 5903 5901 5900 5899 5899 5898 5898 5898 5897 5896 5896 5896 5895 5895 5895 5895 5895 5895 5894 5894 5894 5894 5894 5894 5894 5893 5893 5892 5892 5891 5891 5890 5889 5888 5887 5887 5886 5885
5912 5910 5908 5906 5904 5903 5901 5900 5899 5898 5898 5897 5897 5896 5895 5895 5894 5894 5894 5893 5893 5893 5893 5892 5892 5891 5891 5891 5891 5890 5890 5889 5889 5888 5887 5887 5886 5885 5884 5883 5883 5882 5881